Theta_e
342 338 331 330 328 325 324 318 303 308 308 300 300 302 298 306 306 303 304 304 303 308 309 308 309 312 308 309 309 310 312 310 313 305 308 326 337 343 344 343 344 345 346 347 348 349 351 349 348 346 345 345 345 346 347 349 350 349 349 349 348 348 347 346 345 346 346 346 346 346 344 343 343 342 341 341 340 340 339 339 339 338 338 338 338 340 340 341 341 341 344 344 343 343 343 342 341
334 328 328 328 326 324 314 315 306 302 303 299 298 301 300 304 305 303 302 305 309 308 309 308 310 313 312 311 310 309 314 317 318 319 326 333 340 340 343 344 343 343 347 348 347 348 349 351 348 348 347 347 348 347 347 349 349 350 349 348 347 348 347 346 345 346 346 346 346 345 343 342 342 342 341 340 340 340 339 339 339 339 339 339 339 339 339 342 345 345 344 344 343 342 341 341 341
331 327 326 325 324 319 315 313 302 301 300 295 298 301 304 301 302 304 306 308 309 310 310 310 312 311 311 311 308 307 312 320 322 325 326 336 332 335 341 344 345 346 346 348 347 348 349 349 346 349 350 349 349 349 349 349 348 348 348 348 348 348 347 345 346 346 347 346 345 344 343 342 341 342 341 341 340 340 339 338 339 339 338 339 338 339 339 340 341 340 341 342 342 340 341 340 338
329 330 325 326 316 317 311 308 306 301 298 298 297 302 302 303 303 306 309 308 309 310 309 308 308 312 310 306 309 309 311 318 324 324 322 331 334 338 341 343 347 346 348 349 347 349 349 346 346 349 350 349 349 349 349 348 348 348 348 348 348 348 347 346 346 347 346 346 345 344 343 341 340 340 340 340 340 339 339 338 338 338 338 338 337 338 342 343 343 343 343 343 342 340 340 339 338
329 328 324 322 319 311 311 306 303 303 297 300 297 301 303 304 304 307 308 308 308 308 309 309 309 312 315 311 311 308 315 320 323 329 329 336 339 339 341 345 347 345 346 347 347 350 349 344 347 350 349 349 349 349 348 348 348 348 348 348 348 347 346 346 346 346 346 346 345 344 343 341 341 339 339 340 339 339 338 338 338 338 338 342 341 342 343 342 343 344 344 343 342 340 339 339 339
326 325 329 321 315 315 309 303 302 299 301 304 299 301 304 305 305 307 307 308 308 309 308 308 308 308 308 311 315 315 318 313 323 328 332 334 339 339 341 345 345 345 346 347 347 350 351 342 346 349 349 349 349 349 348 348 348 348 348 348 348 347 346 346 346 346 346 346 346 344 342 340 340 339 338 339 339 338 338 338 338 338 338 338 338 340 344 345 344 343 343 342 341 340 339 338 336
323 321 318 318 316 317 306 302 300 301 301 304 302 302 304 305 307 307 306 306 307 307 308 308 308 308 307 312 314 322 326 325 322 329 337 338 340 339 341 343 345 344 347 348 349 349 350 342 348 349 350 350 349 349 348 348 348 347 347 347 347 347 346 346 346 346 346 345 345 343 341 340 339 337 338 339 339 338 338 338 338 337 339 342 343 343 344 343 344 343 342 340 341 339 337 336 335
324 318 316 310 308 309 304 302 301 304 301 305 305 305 305 307 307 306 305 305 304 305 306 309 309 309 308 314 309 321 323 328 331 333 335 337 339 340 342 343 344 342 345 348 349 350 345 340 345 348 349 349 349 348 348 348 347 347 346 347 347 346 346 346 346 346 345 344 345 343 340 339 338 338 338 339 338 338 338 337 337 336 337 337 338 340 341 341 341 341 341 340 338 336 335 334 334
321 316 321 314 305 307 302 302 301 303 303 304 304 306 310 308 308 306 304 307 306 307 307 308 310 304 306 308 313 318 321 328 329 332 336 338 339 341 340 341 342 343 345 346 348 349 350 336 342 344 346 348 348 348 348 347 347 346 346 346 346 346 346 346 345 345 345 344 344 342 340 338 337 337 338 338 338 337 337 337 337 336 336 335 337 338 338 339 339 339 339 338 336 335 334 334 334
316 316 306 309 309 302 302 300 301 302 302 305 304 305 307 307 307 307 306 304 305 306 309 310 309 305 307 306 308 316 319 325 329 333 336 338 339 340 340 343 343 344 345 346 349 349 348 341 337 341 343 347 348 348 348 346 346 346 346 345 345 346 346 345 345 345 345 344 343 341 339 337 336 335 337 338 337 337 336 336 336 336 335 334 336 336 335 336 336 336 335 335 335 334 333 333 333
310 312 318 307 302 301 301 299 302 302 303 304 305 307 307 308 307 305 306 306 307 305 309 309 305 306 306 307 312 318 324 323 326 329 335 336 339 339 340 344 345 345 344 347 349 350 347 347 339 337 340 342 346 347 348 347 346 346 347 346 346 345 346 345 345 344 344 344 343 341 338 335 335 336 337 337 337 336 336 336 335 334 334 334 334 333 333 332 333 334 334 333 334 333 333 332 332
309 307 311 303 302 302 301 301 301 303 303 304 303 306 308 307 306 304 304 303 304 306 306 308 306 309 305 307 311 315 319 322 328 334 335 338 338 340 342 343 346 345 346 347 348 347 347 347 346 339 335 337 340 344 346 347 347 347 348 347 346 346 345 345 344 344 343 343 342 340 337 335 335 335 336 336 336 336 335 335 334 334 334 333 332 331 331 331 332 333 333 333 332 332 332 332 331
311 313 305 303 303 302 302 300 302 302 302 302 304 306 308 306 304 305 305 305 305 304 305 309 311 308 304 305 311 316 318 322 333 335 336 337 338 341 343 342 345 345 346 346 346 347 347 346 346 344 338 329 332 337 340 344 345 347 347 347 346 346 345 345 344 343 343 342 342 339 336 334 333 333 333 333 334 335 335 334 334 334 333 331 330 329 329 329 331 332 332 332 331 331 331 330 329
313 315 310 304 305 303 301 302 302 300 301 304 306 306 307 305 306 306 306 303 304 304 308 311 309 309 305 307 308 311 318 329 332 334 335 336 337 339 341 342 343 345 347 346 346 346 346 346 346 343 340 344 347 337 332 338 342 344 345 345 345 345 345 344 344 343 343 342 339 337 335 334 333 332 331 331 332 333 334 333 333 332 331 329 328 327 326 327 329 330 330 329 329 329 329 328 327
313 314 309 307 302 302 304 300 300 300 301 304 304 305 305 307 306 305 305 303 304 308 308 310 311 306 303 304 306 310 323 330 331 333 335 335 336 337 339 340 341 343 344 344 345 345 344 345 346 345 342 345 346 345 345 342 335 340 341 341 342 343 343 341 341 341 339 338 336 334 332 330 329 329 329 329 330 331 331 330 332 331 330 328 326 326 327 328 329 328 327 327 327 327 326 326 325
318 312 308 303 300 300 303 302 302 301 302 305 304 306 305 306 306 304 305 305 307 310 308 305 309 305 307 307 313 324 329 330 330 332 333 333 335 335 337 338 339 341 342 342 342 343 342 342 345 345 345 345 346 346 345 344 334 333 338 339 340 341 339 338 338 337 332 330 329 328 326 327 325 325 322 326 325 327 327 328 330 329 328 327 326 327 326 327 327 327 326 325 324 323 322 321 321
315 316 302 302 300 300 303 301 302 299 304 305 304 305 303 303 306 306 306 307 305 306 306 309 307 310 308 310 313 326 327 328 327 330 331 330 331 332 334 336 335 337 337 339 339 340 341 341 343 344 344 344 346 345 344 345 343 330 333 331 331 335 336 336 334 327 324 323 324 322 324 328 327 326 326 325 321 325 319 322 325 326 326 326 325 325 324 324 324 324 323 322 321 319 316 316 316
313 304 302 301 303 300 305 302 303 306 303 304 303 304 304 302 303 305 307 305 305 307 306 308 310 309 311 310 312 324 326 326 327 327 328 328 330 329 331 333 332 331 334 335 337 338 339 340 340 342 342 343 344 345 343 342 344 339 344 344 341 335 331 328 335 341 333 335 324 329 332 329 329 329 326 324 324 324 323 319 321 324 324 323 322 323 322 322 321 321 320 319 318 318 318 317 316
307 304 304 301 303 305 306 305 306 304 304 305 305 305 305 304 305 306 303 304 304 304 305 307 307 309 310 311 313 321 325 326 325 327 327 327 328 328 330 331 331 331 332 333 334 336 338 339 338 340 342 342 343 343 345 343 343 344 344 344 344 336 337 339 342 341 340 336 333 336 333 333 332 330 328 326 325 320 323 320 321 323 323 322 321 321 320 319 319 318 317 316 315 318 315 316 315
306 307 300 301 306 304 306 306 305 306 305 305 304 305 305 306 306 308 303 303 305 303 303 305 306 306 308 310 311 319 322 324 325 326 326 327 328 328 328 330 330 330 331 333 334 336 337 337 337 339 340 340 341 342 343 343 343 343 343 343 342 341 341 341 340 341 340 338 337 339 337 335 332 329 322 321 321 324 322 318 318 318 319 319 318 318 318 317 316 315 314 315 316 313 313 312 313
306 302 301 303 304 303 304 305 305 304 305 305 305 304 303 305 306 306 304 302 303 305 307 306 306 307 309 311 311 317 319 322 324 326 326 327 328 329 329 330 330 331 332 332 331 331 333 335 336 337 338 339 340 340 341 341 345 344 343 341 342 342 341 341 341 341 342 340 339 340 338 334 332 328 325 325 324 323 322 320 319 317 316 315 314 313 312 314 314 314 313 313 312 312 311 311 312
305 302 302 304 304 303 303 304 303 304 303 305 305 302 303 307 305 304 305 301 302 305 308 308 309 309 310 311 312 315 318 320 322 324 325 327 327 328 329 331 332 333 333 330 330 330 331 332 334 335 336 337 338 339 339 340 342 342 343 342 341 341 342 341 340 339 342 342 339 342 338 334 329 327 327 327 325 324 321 320 318 316 315 314 314 313 315 316 314 312 311 310 309 309 309 309 310
300 302 303 304 304 303 303 303 302 303 305 304 303 305 306 303 304 305 305 304 306 307 309 311 310 310 314 315 314 314 317 318 320 322 325 326 327 328 329 330 330 330 331 330 330 330 331 331 333 333 334 336 337 338 338 339 340 341 342 344 342 341 341 339 339 341 339 341 342 339 336 333 329 329 330 327 326 325 323 323 319 317 315 314 315 316 315 314 312 310 309 308 307 307 307 307 308
303 301 303 302 303 303 303 303 301 303 303 304 305 305 303 304 301 306 304 307 309 309 309 310 310 308 309 313 314 315 316 318 320 321 324 326 328 328 328 329 330 331 329 330 331 330 328 329 331 332 333 334 335 337 336 337 339 339 341 341 342 341 340 340 341 340 340 339 339 338 335 335 330 330 330 327 326 326 324 322 319 316 315 316 317 316 314 312 310 309 308 306 305 304 303 304 305
302 301 303 302 303 303 303 302 302 302 303 304 304 303 303 305 303 303 303 306 308 309 309 308 309 309 307 309 314 314 315 316 319 321 322 324 328 330 329 330 331 330 328 329 330 330 328 329 329 331 332 332 334 335 334 336 336 338 340 340 341 339 342 340 343 342 340 340 340 340 337 335 332 332 331 328 327 325 322 320 317 317 318 317 317 315 313 310 308 307 305 303 303 302 302 302 303
305 303 303 303 303 303 303 302 302 302 304 303 302 302 304 303 303 302 305 306 309 310 309 309 309 307 308 308 310 312 314 315 318 319 321 324 326 327 328 329 328 328 329 329 328 328 329 330 328 329 331 331 332 334 334 334 335 336 338 339 340 340 340 341 340 341 341 340 339 338 338 336 333 332 332 330 327 323 322 320 319 318 318 317 315 313 311 309 306 304 303 301 300 300 300 301 301
305 303 304 304 303 303 303 303 303 302 303 303 302 302 303 303 302 299 306 308 308 307 307 309 308 307 308 308 309 311 312 315 317 319 321 323 323 325 327 329 327 327 328 328 328 328 328 327 328 329 329 329 330 330 331 332 334 335 336 337 338 338 338 336 339 340 340 340 341 339 338 337 334 332 332 331 328 324 323 320 319 319 317 315 313 310 309 306 303 301 300 299 299 299 299 299 299
305 304 304 303 304 304 303 304 303 303 302 302 303 302 304 304 303 301 307 307 308 307 307 307 308 307 308 309 309 311 312 314 317 318 318 319 320 320 323 325 326 326 326 328 329 330 327 326 326 327 327 327 327 328 329 329 331 334 335 336 337 338 338 336 335 337 337 338 339 339 338 339 338 335 333 332 328 324 322 320 321 320 316 315 310 308 306 304 302 301 301 300 299 298 297 297 298
304 304 300 301 303 302 303 303 304 303 302 303 304 302 301 302 300 305 307 306 308 307 307 308 308 308 309 310 310 311 312 313 316 318 318 319 320 320 320 324 325 325 327 329 329 328 326 325 326 327 326 326 326 326 327 328 329 331 333 334 336 337 335 335 334 333 335 337 338 339 337 336 335 337 334 332 325 324 323 322 320 316 313 310 308 308 305 303 301 299 298 298 297 297 297 297 299
304 303 303 300 300 300 304 305 304 302 303 304 303 294 299 303 305 307 308 307 306 306 306 307 308 309 309 310 310 311 311 312 313 317 318 319 319 319 320 322 324 325 325 325 326 324 324 325 324 324 324 324 324 324 325 326 328 329 330 332 333 334 333 333 333 333 334 335 337 338 337 338 336 337 333 329 326 323 321 320 316 312 311 308 306 305 303 300 298 297 297 296 297 296 296 296 296
301 302 302 299 298 297 303 303 303 301 303 303 303 295 298 304 306 307 306 306 306 305 306 307 308 309 309 310 310 310 311 312 312 314 317 318 319 320 320 322 323 324 323 323 323 322 322 321 322 321 321 322 322 322 322 323 326 329 330 329 330 332 332 331 331 331 331 331 332 334 336 335 334 333 332 328 323 320 318 315 312 309 308 306 305 304 302 299 298 296 296 296 296 296 297 297 297
302 297 295 300 297 299 301 303 303 300 301 304 302 296 298 302 305 305 305 304 305 305 306 307 308 308 309 309 310 310 310 312 313 313 315 317 318 320 320 320 321 321 321 321 321 321 320 320 320 319 320 320 321 321 322 323 324 327 329 324 328 331 330 329 328 328 327 327 328 330 333 333 333 332 329 326 322 319 316 313 311 308 307 306 304 302 299 297 297 298 298 297 296 296 296 296 296
300 297 299 297 297 298 299 300 303 301 301 302 301 296 301 301 305 305 304 305 304 304 306 307 308 308 309 309 309 309 310 311 313 313 314 315 317 318 318 320 319 320 321 320 320 320 319 319 318 318 319 319 319 320 321 322 322 323 325 325 326 328 328 327 327 325 325 325 325 327 328 329 331 331 327 324 321 318 316 313 310 309 309 306 303 300 298 299 299 298 297 297 297 295 295 295 295
297 299 296 300 296 297 295 299 301 303 301 299 301 298 299 302 304 306 304 306 305 305 305 306 307 308 309 309 309 309 310 310 310 312 313 314 315 316 317 316 319 319 320 320 320 319 318 318 318 318 319 319 319 319 318 319 319 320 321 322 323 325 327 326 323 321 321 322 324 324 326 325 328 329 326 324 322 319 315 312 310 309 306 303 301 300 299 299 299 298 296 297 297 295 294 293 293
295 297 295 296 297 297 296 297 299 301 300 299 300 299 299 301 303 305 306 307 305 305 306 306 306 307 308 308 309 309 310 310 311 313 314 314 314 315 315 316 318 318 319 319 319 319 318 318 317 317 318 319 318 317 317 317 317 316 316 317 318 320 320 320 321 320 319 318 320 323 323 323 324 326 325 324 322 318 313 310 308 307 305 303 301 300 299 298 298 297 296 295 296 296 294 294 293
297 298 297 297 296 296 296 298 299 300 299 298 298 297 299 301 303 305 306 307 306 306 307 306 306 307 307 308 308 309 310 310 312 314 316 314 314 314 314 315 316 317 317 317 317 317 317 317 317 317 317 317 317 316 316 314 314 313 313 312 313 314 316 315 316 316 316 316 316 318 322 322 323 322 322 321 318 316 313 311 308 307 305 303 301 299 298 297 297 296 295 295 294 295 295 294 294
298 298 297 296 296 297 300 299 300 300 297 297 298 299 299 300 302 304 305 306 305 305 305 306 306 307 307 308 308 309 310 311 317 316 316 315 314 314 313 314 315 316 316 316 316 316 315 315 315 315 315 315 314 313 313 312 312 313 313 312 313 313 313 312 312 312 313 313 313 315 316 321 322 320 318 316 315 312 312 311 309 308 306 303 300 298 297 297 297 297 296 295 294 293 293 294 294
297 297 297 296 298 294 299 299 298 300 297 297 299 299 300 301 302 303 305 304 303 304 305 305 306 307 307 308 309 310 311 315 317 314 313 314 313 313 313 313 313 313 314 314 314 315 315 315 314 315 314 313 313 313 313 313 314 313 313 313 313 310 308 308 309 310 309 310 311 312 313 316 321 317 315 315 313 312 310 309 308 307 305 303 301 300 298 297 296 295 295 293 295 293 292 293 294
298 296 297 296 297 300 300 299 298 299 297 296 299 297 298 300 302 303 304 304 305 306 306 306 306 307 307 308 309 310 311 312 314 312 312 312 313 312 311 312 312 313 314 314 314 315 314 314 314 315 314 312 312 313 313 313 314 315 315 314 311 308 306 306 307 308 308 309 309 309 310 314 316 315 316 314 312 311 310 309 308 307 305 302 300 297 296 295 294 294 294 293 292 294 293 295 294
298 297 296 294 300 294 292 296 298 298 297 295 298 295 297 300 302 302 304 304 305 307 307 308 308 307 307 308 309 309 310 311 312 312 311 310 311 310 310 310 311 313 313 313 313 313 313 313 313 314 313 312 311 313 312 314 314 309 308 309 308 309 305 302 303 303 305 306 306 306 308 309 313 312 313 313 313 311 310 309 308 307 304 302 299 296 294 293 294 294 295 295 295 292 292 293 296
299 299 298 296 297 297 295 295 298 299 298 298 296 296 297 300 300 301 305 306 306 306 307 307 308 310 310 312 312 312 310 310 311 312 312 309 309 309 309 310 311 311 312 313 313 313 313 313 313 313 313 311 311 312 312 309 305 305 303 303 304 303 302 302 301 301 302 303 303 303 303 305 307 311 311 311 310 311 310 309 307 306 303 301 299 297 295 295 296 296 296 296 295 293 292 293 296
297 301 299 298 298 297 297 298 297 295 294 296 298 291 292 301 301 302 304 303 303 305 305 306 307 308 309 308 310 311 313 312 311 310 311 310 310 309 309 310 310 311 312 313 314 313 313 313 313 313 312 311 311 311 311 307 305 304 303 302 302 303 301 300 301 301 299 300 301 301 300 302 303 306 309 310 310 309 309 308 307 304 302 301 299 298 297 296 296 296 297 297 297 297 295 294 293
294 296 301 300 298 298 297 296 296 290 289 296 297 289 287 296 296 300 301 302 302 303 307 306 307 308 308 310 311 310 311 311 311 311 311 310 310 309 309 309 310 310 312 314 314 313 313 313 312 312 311 310 311 310 308 306 306 305 304 305 306 305 304 303 305 304 302 302 302 299 299 300 301 303 305 307 308 309 309 308 307 304 302 301 299 298 296 295 296 298 299 297 297 297 296 293 294
293 297 300 298 299 298 298 297 297 294 299 300 297 295 289 289 295 300 301 300 300 301 303 305 306 308 309 310 311 311 311 310 310 310 309 309 310 309 308 309 309 310 312 313 313 312 312 312 312 311 311 310 310 307 306 307 306 306 306 307 307 306 307 306 306 305 303 299 299 298 297 298 299 301 302 305 306 308 308 308 307 305 303 302 300 299 297 297 298 300 299 299 299 298 298 296 295
297 297 301 300 297 300 298 298 295 296 294 290 295 298 290 289 297 300 301 297 298 300 302 304 306 308 309 311 312 311 310 310 309 309 309 308 308 309 309 309 310 311 312 312 312 312 312 312 311 311 310 309 308 307 305 305 306 306 307 308 307 309 310 309 306 302 300 298 298 296 295 296 296 297 299 302 305 305 306 306 305 304 303 302 301 300 299 299 299 299 299 299 299 299 299 300 297
297 300 301 300 301 299 299 296 295 294 291 287 293 296 287 289 295 296 300 298 297 299 301 304 306 308 310 312 311 309 307 307 307 306 307 308 308 308 309 309 310 310 312 313 312 311 311 311 310 309 308 308 307 305 304 305 306 306 307 308 308 307 301 300 301 299 298 296 295 295 295 295 295 295 296 298 301 304 305 305 305 304 303 302 300 301 300 299 300 300 300 301 302 301 301 301 298
300 302 300 299 298 298 296 296 294 290 286 289 296 296 292 286 294 296 296 297 299 300 301 304 307 309 309 311 309 310 307 307 307 306 305 306 307 307 308 308 309 310 311 311 311 310 310 310 309 308 308 308 307 305 304 304 305 306 307 309 308 306 302 300 299 297 295 295 294 293 293 293 294 294 295 296 298 300 302 304 305 305 305 302 301 302 300 300 301 301 302 303 302 301 299 299 298
302 299 296 296 294 295 293 292 293 285 284 293 295 295 295 285 291 298 299 301 301 301 301 302 304 305 308 310 307 305 306 306 306 305 305 305 305 305 306 306 308 309 310 310 310 309 309 309 308 307 307 307 306 305 305 305 305 305 307 309 309 306 303 300 299 297 295 295 295 293 292 293 293 293 294 294 295 298 300 302 304 304 304 303 302 302 301 301 301 301 300 300 300 301 300 297 297
300 297 295 289 287 288 285 289 285 285 284 289 291 295 292 290 294 298 301 302 302 304 303 303 304 305 308 310 308 307 307 306 306 306 306 305 304 304 304 305 307 308 309 309 308 308 308 308 308 306 306 306 305 304 304 305 304 304 304 305 306 304 301 301 300 298 297 295 294 292 292 292 292 292 293 293 295 297 298 300 300 301 301 302 302 302 302 301 300 299 299 299 298 298 297 297 295
295 293 292 287 283 283 281 285 288 287 290 291 291 295 288 293 296 300 300 302 304 304 306 308 308 306 307 312 309 307 307 307 307 307 307 307 306 306 305 305 306 308 308 308 308 307 307 307 307 306 306 306 304 302 303 303 303 303 304 304 304 301 301 300 299 299 298 297 295 294 293 292 292 292 292 294 295 296 297 299 300 301 301 301 301 300 300 299 299 297 297 297 296 296 297 297 297
295 299 296 290 288 284 281 284 282 284 287 287 292 287 286 287 293 303 302 303 304 305 305 307 309 310 311 311 312 309 308 307 308 308 308 308 307 307 306 306 306 307 308 308 308 307 307 306 306 305 305 305 303 302 302 302 302 302 302 302 302 300 299 298 299 299 298 298 297 296 295 295 294 295 294 295 295 296 297 298 299 299 299 299 299 298 298 297 297 296 296 295 294 295 295 294 293
297 299 301 293 290 294 285 287 286 286 286 285 287 286 292 293 301 302 303 303 303 305 306 307 306 307 308 309 309 309 308 306 307 307 307 308 308 307 306 306 307 307 308 308 307 307 306 306 305 305 305 304 303 301 301 301 302 302 301 300 301 300 299 299 299 300 299 299 297 296 296 295 295 296 296 296 295 296 296 297 297 297 297 297 296 296 296 295 295 295 293 293 292 294 292 292 292
295 295 289 293 299 295 290 287 287 285 285 282 290 289 293 298 298 300 301 302 302 303 303 304 304 306 307 307 309 309 310 308 308 308 307 308 306 306 306 306 306 307 307 307 307 306 306 305 305 305 305 305 303 301 301 301 301 301 300 299 300 300 299 299 300 300 299 299 298 299 298 296 295 294 294 294 295 295 295 295 295 294 294 294 294 294 294 294 294 293 292 291 291 291 291 290 290
296 289 294 300 303 299 291 284 287 285 282 284 289 286 288 289 286 300 299 298 300 301 302 303 304 306 306 308 310 311 311 311 310 309 309 308 306 305 305 306 307 307 307 307 307 307 307 306 305 304 304 303 302 300 300 301 300 300 299 298 299 300 300 300 300 298 298 294 294 295 295 294 294 293 293 294 294 294 294 292 293 292 293 293 293 293 293 293 293 292 291 290 290 291 290 289 289
298 294 304 292 287 285 290 287 280 280 281 283 287 289 289 291 291 297 296 297 298 300 302 303 303 304 305 307 309 310 310 311 309 307 306 305 305 305 305 305 306 307 307 307 307 307 306 306 305 305 304 304 303 301 301 300 300 299 298 298 297 297 298 299 299 296 296 295 293 293 294 294 293 293 291 292 292 292 292 291 292 291 292 292 292 292 292 292 292 290 290 289 289 289 288 287 288
300 300 297 301 295 291 288 287 287 287 282 282 283 287 286 295 295 297 297 299 300 301 302 302 303 305 305 307 310 310 310 310 310 308 307 306 305 305 304 304 305 306 306 307 307 306 305 305 305 305 305 305 304 301 300 299 299 299 298 296 296 296 297 297 296 295 293 294 293 293 294 293 292 291 290 290 290 290 291 290 291 291 291 291 291 291 291 291 290 289 288 287 288 288 287 286 286
290 291 291 294 292 297 294 294 288 286 283 283 283 282 288 296 299 299 300 300 301 302 302 304 305 306 307 309 311 311 311 313 312 309 307 305 304 304 304 304 305 306 307 306 306 305 305 305 304 304 303 303 302 301 300 299 298 298 298 296 295 295 295 295 294 293 292 292 293 293 293 292 290 290 290 290 289 289 290 290 290 290 290 290 290 289 290 290 289 288 287 287 287 286 285 285 285
294 292 290 292 289 287 285 283 294 288 286 283 283 282 289 298 302 302 302 303 303 304 305 305 306 307 309 311 311 312 313 313 313 310 307 305 303 303 303 303 305 305 305 305 305 305 304 304 304 304 303 303 303 301 299 298 297 297 297 295 294 294 294 294 293 292 292 291 291 291 290 289 289 290 290 289 289 289 289 289 289 289 289 289 289 288 288 288 287 286 286 287 286 285 284 284 284
Wind_Speed
10 7 4 5 5 5 6 5 4 4 5 4 5 5 6 2 3 6 6 6 6 4 3 1 1 3 4 5 7 6 8 7 6 6 4 3 2 6 8 8 8 9 9 11 10 9 8 5 9 10 9 8 7 7 7 9 10 10 10 11 11 11 12 12 13 12 13 13 13 14 15 15 16 16 16 16 15 15 15 14 14 14 14 14 15 15 16 16 16 17 18 19 18 18 18 17 17
7 5 5 4 5 4 3 2 4 4 4 5 5 2 6 6 5 5 7 4 7 5 3 1 3 3 3 5 5 4 6 8 8 7 6 6 8 7 9 7 9 10 8 8 10 9 9 9 9 12 11 10 10 10 9 10 11 10 10 11 11 12 11 12 13 12 13 13 13 14 14 15 16 16 16 16 15 15 14 15 14 14 15 15 15 16 17 18 18 18 19 19 19 18 18 18 18
6 6 4 4 5 5 2 3 3 0 3 5 5 5 5 5 4 6 7 9 8 7 4 3 2 3 4 4 4 4 5 4 8 9 7 9 8 6 6 7 6 8 9 7 8 9 8 9 8 11 12 11 10 10 10 10 11 10 10 11 11 12 11 12 12 12 12 13 13 14 15 15 16 16 16 15 15 15 15 14 14 14 15 15 16 17 17 16 16 17 17 17 18 18 18 18 17
6 4 5 3 3 4 6 3 3 2 5 4 5 5 4 4 7 9 8 8 8 5 5 5 4 2 4 1 6 3 4 5 6 7 6 8 4 8 7 8 5 6 7 6 8 8 9 8 8 9 10 10 10 10 10 10 10 10 10 11 11 11 11 11 12 12 12 13 13 14 15 16 16 16 16 15 15 14 14 14 14 13 15 16 16 17 17 17 16 17 18 19 19 18 18 18 17
5 3 3 4 6 3 4 2 2 4 4 3 5 6 4 4 8 8 8 8 6 4 2 3 2 3 3 4 3 4 5 8 6 4 7 6 4 7 6 7 7 7 7 7 8 8 10 10 7 8 10 10 11 9 9 9 9 10 10 10 10 10 11 11 11 12 12 13 14 14 15 16 16 16 16 15 14 14 15 14 13 13 15 18 17 17 16 16 18 18 20 20 19 18 18 18 18
5 4 3 4 3 4 3 5 3 5 6 5 4 6 5 6 8 9 9 6 5 2 2 2 4 4 4 1 3 2 2 1 7 6 4 6 7 5 7 6 7 8 7 7 7 7 9 8 6 7 9 10 10 9 9 9 9 9 10 10 10 11 10 11 11 11 12 13 14 14 15 15 16 16 15 15 14 15 14 14 13 13 14 14 14 15 17 19 18 19 20 19 19 19 19 17 17
2 3 3 4 2 2 4 2 3 4 5 5 6 7 6 7 9 10 9 7 4 2 2 0 1 2 4 4 3 4 4 3 5 6 5 8 7 5 7 7 6 8 8 6 7 8 10 7 6 7 6 8 10 9 9 9 9 9 9 10 10 11 11 10 11 11 12 13 13 14 14 15 15 15 15 14 14 14 15 14 13 14 15 16 17 16 17 18 20 20 20 19 19 19 17 16 16
2 3 3 6 3 4 1 1 4 4 5 3 3 6 7 8 9 8 9 7 8 5 7 3 3 5 6 2 1 5 4 4 7 7 7 5 8 7 6 8 7 8 9 7 7 8 9 7 6 4 4 8 8 9 9 9 9 8 8 9 10 11 11 10 11 11 12 13 13 13 14 14 14 14 14 14 14 14 14 14 14 14 14 13 14 17 16 18 19 20 19 20 19 17 16 16 16
3 5 1 5 4 2 3 3 4 3 6 3 5 7 6 7 7 7 7 3 6 1 6 5 3 5 6 6 4 6 5 6 5 6 6 6 7 7 6 9 8 7 8 8 7 8 8 6 7 5 2 5 8 9 9 9 8 7 8 9 9 10 11 10 11 12 12 13 13 13 13 14 14 14 14 14 14 14 14 14 14 14 14 15 15 16 17 17 18 19 19 19 17 17 16 16 16
4 4 5 4 1 3 1 3 4 3 4 4 4 7 6 6 6 4 6 5 3 5 4 4 1 2 3 4 6 5 5 6 7 6 5 5 7 7 7 7 8 8 8 8 7 8 8 7 6 6 4 3 6 9 10 9 9 8 8 8 9 10 11 11 11 12 12 13 13 13 13 14 14 14 14 14 14 14 14 14 14 14 14 15 16 16 15 16 16 17 17 17 16 16 16 16 15
5 4 3 4 4 2 3 5 4 5 4 4 4 5 6 6 6 5 4 3 5 3 5 2 4 4 3 3 4 5 8 7 7 8 6 6 5 7 7 7 7 8 8 8 8 7 8 8 7 6 5 2 2 6 8 8 10 9 7 7 9 10 11 11 11 12 12 13 13 13 13 14 14 14 14 14 14 14 14 14 14 14 15 16 17 16 16 15 16 16 16 16 16 16 16 16 15
4 5 4 5 3 1 3 3 4 6 5 4 6 7 5 8 6 6 5 5 6 4 5 7 1 0 4 4 4 6 7 7 6 7 7 6 6 7 6 6 7 7 7 9 8 8 8 8 7 6 4 3 3 3 6 7 7 8 6 8 9 10 11 11 11 11 12 13 13 13 14 14 14 14 14 14 14 14 15 14 14 15 15 16 16 16 15 15 16 16 17 16 16 16 16 16 16
5 4 6 6 2 1 5 2 5 3 5 6 7 7 7 8 8 6 6 4 5 6 6 8 4 3 4 2 5 8 8 8 6 8 7 5 6 6 5 5 4 5 6 8 8 8 9 9 9 7 4 1 4 4 4 6 7 6 6 8 9 8 10 11 11 12 12 14 14 13 14 13 14 14 14 14 13 14 15 14 14 15 15 15 16 15 15 16 16 16 16 17 16 16 16 16 15
4 2 4 3 1 1 2 3 3 3 4 7 6 9 8 6 8 2 3 6 6 5 5 5 3 1 4 4 6 7 7 9 9 8 6 6 5 6 5 2 3 3 5 7 8 7 7 7 8 7 6 5 7 5 6 4 6 6 6 7 9 9 9 9 10 11 11 12 13 12 12 12 12 13 13 14 14 13 14 14 15 15 15 15 15 16 16 17 17 17 17 17 17 16 16 16 15
3 1 3 1 2 3 2 3 2 3 3 10 7 10 9 3 1 2 5 6 5 7 5 1 2 2 3 6 7 7 10 11 9 8 7 7 7 6 5 4 4 1 4 4 4 5 5 5 6 7 8 8 7 7 6 6 4 5 8 7 8 10 9 9 9 10 11 12 12 12 12 12 11 12 12 12 12 11 12 12 15 15 15 16 16 16 17 17 17 17 17 17 16 16 16 16 15
3 3 3 4 4 5 5 4 1 2 4 8 8 8 9 5 2 4 1 5 4 2 2 4 3 2 5 5 8 10 12 10 8 8 8 8 6 5 5 6 6 4 4 4 5 4 5 4 5 7 8 9 7 5 5 8 5 4 6 8 9 10 10 9 10 11 12 12 13 13 13 13 11 10 11 10 10 10 10 11 12 14 16 16 16 16 16 16 16 17 16 16 17 16 16 16 15
2 3 4 4 4 6 5 4 5 2 7 8 8 10 9 7 6 1 3 2 4 4 5 2 5 2 4 6 7 9 10 8 8 9 9 8 7 6 5 6 7 6 2 5 4 6 5 4 5 5 7 7 7 7 4 3 6 7 6 6 7 9 10 10 11 12 11 12 12 13 12 11 10 9 9 10 11 10 10 11 12 14 16 16 16 16 16 16 17 17 17 17 17 17 15 15 14
2 5 5 5 1 6 5 3 5 5 2 7 10 10 8 7 6 4 2 4 7 2 5 5 2 2 4 7 7 8 9 10 10 11 10 9 8 7 6 7 8 9 6 6 5 6 7 6 4 6 5 6 6 5 5 4 6 8 9 7 6 6 8 11 10 10 10 9 12 11 8 8 7 7 9 10 10 11 10 11 12 13 16 16 16 17 16 16 16 16 15 14 12 9 8 7 8
5 4 4 4 3 4 3 2 4 1 2 6 8 8 8 2 9 6 6 7 9 8 8 7 7 7 8 9 9 9 10 10 11 10 12 12 10 11 10 7 9 9 9 6 6 8 8 7 5 7 7 7 7 7 5 6 7 8 8 8 7 9 8 8 9 11 10 10 9 8 8 7 8 8 6 7 9 12 10 11 12 13 15 15 16 17 16 16 16 15 14 12 9 7 6 5 5
0 4 5 2 5 6 6 3 5 6 3 4 7 6 6 3 3 7 7 7 7 10 7 9 9 9 13 11 10 11 10 11 11 11 12 11 11 11 12 11 11 11 10 9 9 8 9 8 8 9 8 6 6 6 7 7 7 7 6 6 7 7 8 8 8 10 8 9 9 7 6 8 8 7 12 15 13 10 9 12 14 13 13 13 13 12 14 14 14 12 9 7 6 5 5 6 6
3 4 3 4 2 3 4 4 6 6 4 2 5 5 7 3 3 5 4 9 8 8 9 8 9 9 12 14 12 12 11 11 12 12 12 12 12 10 10 11 10 9 9 9 9 9 11 10 9 9 8 8 8 7 7 7 6 7 7 6 7 7 8 7 6 7 5 10 9 5 6 7 8 9 9 8 8 8 9 8 8 7 7 8 9 8 7 7 6 6 5 5 6 5 6 6 6
2 0 4 2 2 1 4 3 5 4 2 0 5 6 6 5 2 7 8 9 7 3 7 11 9 3 6 14 13 12 12 12 13 13 14 14 14 12 10 10 10 8 8 9 9 8 10 10 10 9 9 9 9 6 7 6 6 7 6 7 6 8 8 8 7 7 5 7 8 4 6 8 9 9 8 8 9 8 8 8 7 7 7 7 7 7 6 5 5 5 6 6 6 6 7 6 7
4 4 2 3 4 3 2 3 3 3 2 3 4 2 5 5 4 8 10 13 5 5 7 8 9 8 7 9 12 12 12 13 14 15 15 14 14 13 11 10 10 10 7 9 9 8 8 8 9 6 7 7 9 9 6 3 5 7 6 7 7 6 6 7 8 8 9 6 6 6 7 8 8 8 8 8 9 8 7 7 7 7 7 7 6 6 6 6 5 6 6 6 6 7 8 7 7
6 3 5 4 3 5 3 4 2 1 1 1 3 4 5 4 9 3 9 13 13 4 5 6 5 5 3 8 10 12 13 14 14 14 13 14 13 13 11 11 11 8 7 9 9 8 7 8 8 7 6 7 6 8 8 8 5 5 6 6 7 7 7 8 8 8 8 11 8 7 8 8 9 8 8 8 8 8 8 6 7 7 6 6 6 6 6 6 6 6 7 7 7 7 7 7 7
5 4 4 4 3 5 4 4 3 1 0 3 2 4 6 5 4 3 11 13 11 9 5 4 3 3 3 6 9 10 11 11 12 12 10 10 10 11 11 8 9 9 10 11 9 9 9 8 8 8 8 8 7 7 7 8 7 6 6 7 7 5 6 6 6 7 8 9 9 9 8 8 8 9 9 8 7 7 8 7 7 7 6 6 6 6 6 7 6 6 6 6 6 6 6 7 7
2 6 6 5 5 5 5 5 3 2 2 1 3 5 2 2 3 11 16 13 8 3 4 4 5 5 6 7 8 9 10 12 11 11 12 10 9 12 12 11 10 11 11 11 9 8 9 9 9 9 8 7 7 8 7 8 8 8 7 7 6 5 6 5 5 7 7 8 8 7 8 9 9 10 9 8 8 8 8 7 7 7 7 6 6 6 6 6 6 6 6 6 6 6 7 7 6
3 7 5 5 5 5 2 3 5 2 1 3 4 5 4 4 3 7 6 2 4 4 7 5 6 9 10 8 9 9 10 11 12 10 9 9 9 10 11 11 11 11 10 11 10 9 8 9 9 9 9 7 5 6 6 7 9 8 8 8 6 5 4 2 4 7 8 9 6 7 9 9 8 9 10 9 8 8 8 8 7 7 6 6 5 6 5 6 6 6 6 6 6 7 7 6 6
4 6 6 6 4 3 5 3 5 4 3 3 4 6 4 4 4 13 3 3 2 5 8 8 8 9 9 10 9 8 9 9 8 10 13 13 10 11 12 11 12 11 11 12 10 9 9 10 10 9 9 7 7 7 6 6 8 9 9 8 8 7 6 3 2 2 4 8 9 6 4 2 4 8 9 9 8 8 8 8 7 7 6 7 6 6 6 5 5 5 6 6 7 8 7 6 5
5 4 5 5 4 5 6 6 5 3 2 2 1 6 11 10 11 16 8 6 5 5 5 7 8 8 8 8 8 7 8 8 8 9 11 11 9 9 12 11 11 11 9 11 10 10 10 10 10 10 9 8 7 8 7 7 7 8 9 8 7 5 5 4 4 3 1 4 8 10 10 9 6 5 8 8 8 7 7 8 8 8 6 7 8 7 7 5 6 6 6 6 7 8 8 6 5
4 3 3 5 5 7 9 4 3 3 3 3 2 5 6 13 19 11 7 5 5 6 8 8 8 8 7 8 8 8 8 8 9 10 9 9 9 10 11 11 11 11 9 8 11 10 8 6 6 6 7 8 7 6 7 7 8 8 10 9 8 6 5 7 7 5 3 2 5 8 9 8 5 6 8 9 8 7 7 6 7 8 8 9 7 9 9 6 6 7 6 7 6 7 7 6 7
4 3 2 4 5 3 7 5 6 6 5 5 1 6 7 3 4 7 4 3 6 9 10 10 9 8 7 7 8 8 9 10 10 10 10 10 9 8 10 10 12 12 8 9 11 11 11 8 6 6 7 7 7 7 7 7 7 8 10 10 7 5 7 8 6 5 5 3 2 2 5 6 4 4 4 6 7 8 8 7 8 9 9 8 8 7 8 6 6 8 7 8 7 6 7 7 8
2 4 5 4 5 5 6 4 6 8 4 5 5 7 10 12 4 2 3 2 4 8 8 8 9 8 7 7 8 9 9 9 11 11 11 11 10 8 10 11 11 12 11 10 10 10 11 10 8 7 8 9 7 7 7 6 7 7 7 7 8 6 7 6 6 5 4 4 3 2 3 5 8 9 9 8 9 7 7 8 8 9 10 8 8 8 8 8 7 5 5 5 8 7 8 8 7
4 6 1 5 5 4 5 4 2 2 5 6 11 6 3 2 3 4 2 5 6 7 9 9 9 9 9 8 7 7 8 8 9 11 11 11 10 9 10 11 11 12 11 11 11 11 10 10 9 9 9 9 8 7 6 6 5 5 6 6 8 8 7 8 6 4 4 4 4 4 3 4 5 9 9 9 9 9 7 8 8 10 8 7 8 7 8 6 7 7 6 5 5 9 9 9 8
6 5 6 2 6 4 5 5 3 3 5 6 10 9 11 10 4 4 6 6 5 6 9 11 11 10 10 8 8 8 8 8 10 10 12 13 10 13 10 11 11 12 11 11 11 10 10 9 8 8 7 8 7 6 5 6 6 7 3 4 6 9 8 7 4 4 4 4 5 5 5 5 6 8 10 10 9 9 9 9 9 10 9 8 8 7 7 6 5 6 8 5 6 8 8 9 9
6 7 6 5 6 7 4 2 6 5 5 8 8 12 14 14 14 14 10 9 10 12 13 14 14 12 11 10 9 10 9 9 9 8 11 13 12 12 11 11 11 11 10 12 11 10 9 8 7 8 7 7 7 6 6 7 6 5 4 3 4 4 3 3 4 4 4 4 4 5 6 6 6 7 9 10 9 9 9 10 10 10 9 9 9 7 7 7 6 6 8 7 6 6 7 8 9
2 3 5 3 3 5 6 4 6 4 5 7 10 11 12 13 13 13 13 14 15 15 14 13 13 12 12 12 12 11 10 11 8 7 10 11 11 11 10 10 10 10 10 11 11 11 10 9 8 8 8 8 7 7 7 7 7 6 6 3 3 3 3 3 2 2 3 4 3 2 6 7 6 7 10 10 9 9 10 9 10 11 10 9 9 8 7 7 10 9 8 9 9 8 7 8 9
3 2 3 4 4 5 5 6 4 3 3 10 12 13 15 15 13 13 13 13 15 16 16 14 13 11 11 11 13 12 12 11 5 8 9 10 11 10 10 9 10 11 11 12 12 12 11 10 10 10 9 9 7 7 9 8 8 8 6 7 7 4 3 2 3 3 2 3 3 3 4 6 7 7 8 9 9 9 9 10 8 8 8 10 10 11 11 11 9 7 8 6 10 10 8 8 8
5 4 4 5 4 5 2 4 4 3 4 5 7 10 14 15 13 13 13 14 17 17 17 17 15 13 12 13 14 13 11 5 9 8 9 10 9 10 10 9 11 13 13 13 14 13 12 11 11 10 9 9 9 10 9 9 8 9 7 6 6 4 4 4 3 3 3 3 4 4 4 4 8 7 8 10 9 10 10 9 9 9 8 7 9 9 9 9 10 10 10 7 5 10 9 9 9
4 6 3 4 5 4 4 7 4 3 3 8 9 11 14 16 15 14 15 16 16 17 16 15 13 12 12 12 12 11 9 10 9 10 10 10 11 11 10 10 10 12 12 13 12 12 12 11 10 10 9 9 9 10 10 9 9 8 8 8 6 4 2 1 1 2 3 4 4 3 3 3 5 7 9 10 10 10 11 10 9 9 9 9 10 10 10 11 10 12 11 10 9 5 7 8 9
4 5 5 6 3 2 3 4 2 5 4 6 10 12 13 17 17 20 20 17 16 16 16 14 11 13 16 16 12 10 11 9 11 10 12 11 11 10 10 10 10 11 11 12 12 13 11 11 11 11 10 10 9 11 9 10 6 5 5 4 5 4 3 3 2 2 2 3 4 2 2 1 4 7 7 9 9 10 12 11 10 10 10 9 9 11 11 11 11 10 9 10 10 11 8 8 8
7 7 6 6 3 3 4 3 4 5 7 3 9 11 12 13 12 10 11 13 12 13 13 13 13 14 15 11 10 11 13 12 10 9 8 10 11 12 12 10 10 11 11 12 12 12 9 13 12 12 10 10 9 10 11 6 6 6 5 5 5 5 4 3 3 2 2 2 2 3 3 1 2 6 7 7 7 10 11 11 11 10 10 10 9 9 10 10 11 11 11 10 11 10 11 8 6
5 8 9 8 6 7 3 5 7 5 5 5 4 7 4 4 5 6 2 1 7 10 10 11 12 13 12 12 12 9 9 10 11 10 8 10 10 10 10 11 11 10 11 11 11 12 11 11 12 12 9 9 10 12 12 8 7 7 7 7 7 5 5 6 7 7 5 5 6 3 3 2 2 4 6 8 8 9 11 11 11 9 8 9 8 8 10 9 9 10 10 9 9 7 8 9 6
7 1 4 9 8 4 4 6 4 4 4 3 3 4 9 3 8 6 7 8 9 8 8 9 11 10 9 9 8 7 7 6 7 7 8 7 8 9 10 11 11 11 10 9 10 11 11 10 11 12 10 8 10 12 11 7 8 7 8 7 6 6 6 4 4 5 5 5 4 5 4 3 2 4 6 7 8 9 10 11 10 9 9 9 10 8 9 13 11 9 8 8 8 7 8 8 9
7 3 2 1 1 3 3 3 4 8 6 9 10 7 10 11 9 11 13 12 14 13 10 11 10 10 8 8 7 5 3 4 3 5 6 7 7 9 10 10 10 10 9 9 9 10 12 11 11 11 9 8 8 8 9 9 8 8 9 9 7 8 8 7 7 6 5 4 5 5 3 3 3 2 4 6 7 9 10 10 9 11 12 11 11 9 10 11 8 6 7 8 7 6 8 8 8
2 2 3 2 1 1 0 2 5 4 7 9 5 7 4 9 1 8 16 13 12 9 11 10 10 8 7 5 2 4 3 2 2 3 4 6 6 7 7 9 9 10 10 10 10 9 9 10 10 10 9 9 9 11 10 9 8 8 8 7 8 7 7 6 6 5 5 4 5 4 3 3 3 2 3 5 7 6 8 10 10 10 11 10 10 8 10 11 12 11 10 9 8 7 7 5 6
2 2 4 5 4 3 1 3 3 4 4 10 6 8 3 15 11 6 5 9 8 7 9 8 8 5 3 3 3 4 3 2 2 2 2 3 4 5 6 7 9 9 9 9 9 9 9 9 10 11 11 10 9 11 9 10 9 8 9 8 8 6 4 4 5 6 5 5 5 6 4 4 4 3 3 4 6 5 7 8 9 11 10 9 9 9 10 10 9 10 10 8 7 7 5 3 6
9 6 6 4 2 2 2 1 2 2 6 11 10 11 5 8 11 10 10 8 8 7 6 6 5 4 2 5 4 3 3 4 3 2 2 3 2 4 5 7 8 9 8 9 9 9 9 9 10 11 12 12 12 11 11 11 9 9 9 9 9 8 7 6 6 5 5 5 6 6 5 5 4 2 2 3 3 5 6 7 8 9 9 9 9 9 10 10 9 10 9 6 6 6 4 4 4
6 4 3 2 3 2 3 3 2 3 9 1 6 8 9 5 5 6 9 9 10 6 5 7 7 5 1 5 4 4 4 3 3 3 4 4 4 4 5 7 8 9 9 10 9 9 9 9 9 11 13 14 12 10 11 10 9 9 8 9 10 9 9 6 7 8 8 9 7 7 5 5 5 3 4 3 3 5 6 6 6 8 9 10 9 9 10 9 8 7 6 5 5 3 4 5 4
3 5 5 4 3 2 4 4 5 7 8 2 2 4 4 19 16 3 6 4 6 7 7 7 8 7 2 5 5 5 4 4 4 4 4 5 5 6 7 8 9 10 10 11 11 9 9 9 10 12 14 13 12 10 11 11 10 9 7 5 6 7 7 8 8 8 9 9 8 7 8 7 6 5 6 5 5 7 7 8 7 7 7 9 9 8 8 8 7 7 6 5 5 4 4 4 4
8 9 8 6 6 7 8 6 4 3 1 5 4 2 10 13 11 13 18 16 11 8 6 6 5 7 9 2 6 6 5 5 4 5 5 5 6 6 7 8 9 9 11 11 11 10 8 8 10 13 14 13 11 10 10 10 10 9 9 7 4 5 6 6 5 6 8 8 8 9 9 8 8 9 8 8 8 8 7 6 7 6 6 7 7 6 6 7 8 6 7 6 6 4 4 4 5
12 8 9 7 5 4 6 5 7 6 5 3 4 3 5 0 1 1 10 10 13 13 12 8 7 7 6 4 5 6 7 6 5 5 6 6 6 7 7 8 9 9 11 11 10 10 9 9 11 13 14 13 12 10 9 10 9 9 8 6 4 5 5 5 5 5 6 7 8 9 8 7 7 8 7 6 7 8 7 6 6 6 6 6 6 6 5 6 6 6 6 6 5 5 5 5 5
7 5 2 6 10 5 10 2 3 3 3 3 5 7 2 6 4 2 1 2 3 5 6 5 7 9 8 7 8 7 8 7 7 6 6 6 6 7 7 8 8 8 10 10 11 10 10 10 11 13 14 14 13 10 10 10 10 9 8 7 7 5 4 4 5 5 5 4 6 8 8 8 6 6 6 7 8 7 7 7 6 5 6 6 5 6 8 7 7 7 6 6 6 3 6 6 6
7 6 7 6 7 2 3 1 3 2 2 12 4 10 12 10 18 17 10 9 12 9 7 7 10 11 10 10 9 10 5 6 6 6 5 6 7 7 7 8 8 8 9 10 11 11 11 11 11 13 14 13 13 11 11 10 9 10 9 9 9 8 7 7 8 7 8 6 5 6 6 5 5 5 5 6 7 6 5 6 6 6 6 6 7 7 8 8 7 7 7 7 7 5 6 6 5
7 6 7 5 3 4 3 7 2 4 9 8 2 11 13 7 11 6 15 15 15 9 10 11 11 9 11 10 9 8 5 4 6 6 5 6 7 8 8 7 9 9 10 11 12 11 10 11 11 13 14 15 14 11 11 11 10 10 9 9 10 10 8 7 6 6 7 5 4 4 4 5 6 5 6 6 6 7 6 6 6 7 7 7 8 8 8 8 8 6 7 7 7 7 7 6 5
3 2 4 7 5 6 9 3 9 9 8 7 10 12 13 13 14 2 9 13 12 14 12 11 11 12 13 12 11 5 5 4 5 6 6 7 7 7 8 9 9 9 10 10 10 11 10 10 11 11 14 14 14 10 10 9 10 7 6 8 9 8 8 8 6 6 5 6 8 6 6 7 6 6 6 7 6 6 6 6 6 7 7 8 7 8 8 8 8 8 7 7 7 7 8 7 5
0 1 3 1 2 7 8 9 2 3 9 5 9 9 14 8 11 13 15 12 14 13 11 10 11 12 11 10 5 6 6 6 6 6 7 6 6 7 8 9 10 10 10 9 10 10 11 11 12 12 12 13 13 12 10 10 10 8 7 7 7 7 8 7 5 6 6 7 8 9 7 7 8 7 6 7 7 7 8 8 7 7 7 8 8 8 8 8 7 7 7 7 7 8 9 9 7
6 6 9 4 4 3 5 3 6 5 6 7 7 12 12 9 8 11 12 14 12 11 9 8 9 12 12 6 4 5 6 5 6 6 6 6 6 7 7 7 8 9 8 9 10 11 11 11 12 13 13 14 15 14 11 9 9 9 10 10 8 8 8 7 7 6 5 7 8 9 7 6 6 7 8 8 8 9 8 8 9 8 8 8 9 9 7 8 8 9 7 9 9 9 10 8 8
13 15 15 15 11 8 7 8 4 0 4 5 6 12 15 4 2 3 5 4 6 8 9 8 10 10 5 4 4 5 6 6 6 5 6 7 7 7 6 6 7 9 10 11 10 10 12 13 12 12 13 13 15 13 10 9 8 8 9 9 9 9 8 8 9 9 9 8 7 8 8 6 8 7 8 9 9 9 8 8 9 8 8 8 8 9 9 8 9 10 9 7 9 10 10 9 8
Wind_Direction
277 247 257 247 250 251 268 206 238 131 229 110 130 208 89 82 101 145 112 153 154 68 54 142 13 177 333 16 356 356 26 350 22 332 37 79 162 98 98 128 135 133 133 134 146 142 139 121 132 131 134 139 144 139 140 124 114 111 108 109 110 107 103 99 92 86 83 80 77 77 77 77 75 74 74 72 73 74 76 79 79 78 81 85 88 88 87 87 89 86 80 78 75 72 70 68 67
276 289 256 240 242 253 206 92 265 154 130 131 68 65 110 114 191 135 135 79 48 95 110 83 148 52 54 359 329 303 82 46 29 70 78 108 144 135 110 165 149 138 137 135 138 143 134 126 132 142 147 152 148 146 139 120 119 115 114 114 108 104 105 99 94 89 86 84 80 80 81 80 79 78 79 79 78 78 78 79 79 80 84 86 85 88 91 88 83 81 78 77 74 72 70 67 66
298 286 240 221 233 245 300 214 255 228 167 97 92 70 130 146 137 95 72 70 87 101 100 96 111 167 209 257 247 335 78 90 86 79 99 129 147 133 133 134 149 142 138 139 138 138 135 124 129 138 142 142 137 134 128 127 120 118 116 113 111 110 106 101 97 93 90 86 85 84 83 80 78 78 78 79 81 83 83 82 81 85 86 88 91 89 88 86 83 82 83 81 76 73 70 70 69
282 272 277 268 225 205 237 217 311 287 70 77 121 124 154 124 94 87 86 91 97 114 136 141 173 45 292 223 24 277 108 104 61 104 122 174 75 127 145 141 166 155 138 139 139 130 125 124 132 129 132 134 131 134 129 123 123 119 114 113 113 112 110 106 100 96 91 88 86 85 84 82 81 79 78 78 78 82 86 87 86 86 91 95 93 90 86 84 84 89 89 86 79 76 73 71 64
268 250 254 271 287 212 301 9 324 289 96 8 89 136 125 115 111 110 99 102 107 120 207 126 150 111 359 327 330 321 71 89 111 7 111 91 134 124 138 147 169 159 147 150 139 126 115 116 122 133 135 135 137 137 132 128 124 120 115 113 114 116 117 110 103 98 91 87 85 82 81 81 82 83 82 81 82 82 82 84 90 93 90 82 86 90 95 96 90 86 81 78 78 75 73 65 60
260 259 211 259 274 0 256 206 159 75 42 338 127 120 135 111 126 121 121 123 110 129 33 189 350 142 183 100 18 4 31 175 120 99 115 116 110 142 140 159 175 160 150 152 135 132 129 105 115 136 140 140 138 141 135 129 127 121 120 119 119 121 120 112 107 98 92 87 83 80 79 81 82 83 84 84 85 85 83 83 83 86 89 90 85 85 84 84 86 81 77 79 78 73 67 64 62
285 238 180 201 183 228 266 56 80 90 76 335 67 123 130 125 120 130 136 131 151 128 165 34 229 199 194 119 144 67 71 61 162 83 39 114 126 139 152 163 175 166 150 149 135 123 120 99 126 133 138 141 143 143 140 136 131 127 125 124 125 126 124 117 108 100 94 89 84 82 83 84 85 85 85 85 85 84 84 84 81 85 88 93 91 86 87 85 81 80 78 76 72 70 69 67 64
266 274 145 231 147 247 100 81 61 358 97 19 29 104 129 125 138 145 148 184 157 199 174 169 239 272 60 194 211 102 91 56 77 109 114 123 131 152 166 165 179 172 152 151 141 111 109 93 80 88 136 149 146 144 144 140 134 133 132 132 133 131 129 123 112 105 101 94 88 86 87 87 86 86 87 88 86 85 86 85 87 85 86 78 85 84 80 81 80 80 79 75 75 72 70 68 66
225 256 132 257 182 248 174 77 81 57 105 129 126 45 67 134 154 152 159 118 127 123 160 173 161 243 118 154 65 131 116 119 103 95 105 122 140 151 169 178 178 170 159 156 151 135 138 102 101 76 93 161 154 150 147 144 133 138 140 136 139 137 134 126 118 112 103 98 94 92 90 90 89 90 90 91 90 89 88 86 84 84 84 90 84 81 81 79 79 78 77 79 79 76 73 70 66
214 248 187 255 13 184 158 131 166 96 102 103 132 152 141 149 156 210 157 161 137 169 89 80 157 305 142 154 127 173 145 140 131 128 114 128 126 153 172 193 182 174 167 155 153 162 132 121 93 93 68 173 170 160 153 147 145 148 147 144 143 139 136 131 123 116 106 100 98 97 95 94 93 95 95 93 93 91 89 90 90 90 89 90 79 81 83 81 81 81 85 87 82 79 76 71 64
219 188 319 236 210 150 225 114 104 151 137 143 122 136 154 161 171 177 202 138 126 167 120 172 194 212 202 139 71 61 109 138 159 147 140 136 136 156 171 193 184 184 169 160 151 151 140 155 114 93 75 80 184 175 160 151 152 154 154 147 141 141 140 135 126 117 111 106 101 98 97 97 97 95 96 96 97 96 95 94 93 94 96 90 84 86 87 91 91 93 92 91 84 81 76 71 64
232 209 188 244 225 269 85 83 110 112 132 162 157 150 158 167 178 189 185 188 172 183 176 189 72 322 218 181 120 142 139 152 165 127 132 142 163 161 175 182 181 186 177 161 156 158 154 158 157 111 79 56 109 189 162 153 155 152 152 146 139 142 144 139 131 124 116 111 106 103 101 100 100 99 98 98 98 99 99 98 99 98 96 93 93 94 95 97 98 97 98 90 85 81 75 70 65
273 191 208 250 48 254 68 262 112 109 167 189 152 155 149 174 189 194 181 219 161 187 182 185 59 246 227 152 95 128 156 159 133 124 132 165 142 153 186 180 169 195 183 172 170 157 166 167 167 152 107 102 115 120 167 155 156 154 153 141 141 141 146 141 134 128 123 117 110 106 104 103 102 102 101 100 100 100 101 100 100 99 97 97 97 97 95 94 92 92 91 89 83 79 75 69 64
275 212 251 236 45 296 238 67 108 199 184 128 122 140 168 180 200 231 190 197 187 200 60 90 189 318 270 115 146 157 157 141 128 129 136 149 146 160 173 167 146 221 196 188 178 163 171 176 166 149 159 201 173 141 127 156 163 157 143 139 136 137 143 142 135 130 123 113 110 106 104 102 102 102 103 102 100 99 101 101 100 100 99 98 97 96 93 90 90 89 91 91 84 78 74 69 64
283 317 257 353 182 227 115 239 154 216 112 133 135 152 165 187 26 201 228 223 119 65 118 34 350 239 104 224 144 162 143 137 132 128 146 152 161 162 179 181 150 199 183 175 131 166 145 169 184 163 175 190 183 184 177 144 171 164 146 142 139 138 139 138 134 123 113 110 110 107 103 98 96 98 97 95 91 90 91 96 101 102 101 100 98 95 91 89 89 89 94 94 83 77 71 66 61
315 266 228 221 217 232 149 221 146 248 122 129 146 148 170 155 189 208 188 7 66 66 175 173 202 292 351 26 80 92 119 124 125 143 154 150 155 158 172 194 175 170 188 176 171 138 143 146 194 180 185 188 181 179 174 180 139 168 158 148 146 144 139 136 131 118 114 114 115 114 112 110 106 100 102 98 93 93 93 99 102 104 103 101 97 93 91 92 91 92 93 86 81 76 71 63 59
272 275 205 219 212 216 135 206 160 206 98 107 144 157 180 178 163 260 21 293 248 158 199 157 186 179 22 75 98 114 115 113 136 156 161 162 167 172 167 192 195 175 182 195 195 183 162 164 184 187 187 183 190 180 171 180 132 147 153 136 159 149 140 136 129 121 121 124 125 127 132 124 121 120 116 108 100 90 90 95 102 106 104 100 97 95 93 93 92 91 90 90 88 84 77 68 58
256 212 232 214 221 206 136 205 182 47 174 136 166 174 194 171 160 168 165 226 241 159 216 175 163 194 86 113 119 123 130 141 156 164 171 172 178 176 178 187 194 199 194 197 205 196 185 176 215 178 176 174 185 187 172 200 171 182 180 163 166 156 140 139 145 147 141 141 144 151 145 138 137 123 113 115 108 103 90 90 96 101 103 101 100 97 96 96 95 94 92 90 88 89 90 82 71
231 227 240 240 188 64 22 36 63 178 50 146 162 177 201 193 165 150 210 206 206 225 225 208 212 196 144 138 134 146 150 154 164 182 177 180 183 186 184 184 199 199 196 192 195 203 192 187 197 194 184 185 189 189 179 197 187 188 186 176 174 168 154 168 167 160 163 155 170 165 154 153 133 131 126 103 102 89 91 92 92 96 99 98 98 99 98 97 96 95 93 91 89 86 74 74 69
207 279 214 215 60 81 51 33 84 50 1 159 158 165 211 91 190 124 223 239 199 229 230 203 227 211 183 164 156 153 165 165 176 191 189 190 191 190 187 189 200 201 194 197 195 199 198 184 190 205 191 174 195 203 194 197 199 190 181 182 186 177 172 185 181 175 173 170 184 179 165 139 127 101 100 110 110 111 93 85 89 89 91 93 97 96 95 93 95 93 99 100 87 73 74 75 72
103 238 282 49 26 143 74 68 67 61 9 181 161 129 199 146 181 178 209 245 234 241 243 238 216 223 195 167 165 161 170 177 185 196 199 198 198 197 195 194 200 195 190 189 201 196 201 201 189 207 193 191 203 199 205 204 203 200 184 190 186 190 179 180 188 186 171 176 188 205 158 140 125 130 138 137 126 127 127 126 126 125 122 120 122 112 117 129 119 107 101 86 78 69 66 67 70
226 333 37 19 74 110 78 80 53 35 7 154 130 163 204 108 167 220 229 232 238 253 227 222 247 301 133 153 168 168 177 183 189 196 203 203 202 199 195 191 202 206 177 192 191 182 199 200 195 196 199 202 202 205 200 200 185 200 203 192 189 201 183 188 178 192 179 181 201 135 163 143 138 147 161 144 135 142 145 152 147 139 135 133 137 131 130 118 109 99 86 78 71 69 65 60 59
216 133 99 53 16 70 72 113 59 318 94 147 183 182 83 181 222 214 231 237 243 60 32 36 57 69 110 157 158 176 184 190 192 199 202 205 203 205 200 191 194 199 189 186 182 192 183 183 181 175 187 196 202 205 203 179 195 210 207 202 197 207 196 200 194 189 187 190 190 176 170 157 159 159 160 153 150 151 160 158 148 143 148 149 144 132 125 119 104 97 86 81 76 74 73 66 61
286 118 133 84 18 76 62 65 85 107 280 180 26 17 243 204 239 170 238 241 249 92 81 65 67 85 128 163 175 184 190 195 198 201 203 208 204 202 203 198 194 186 178 187 190 190 181 188 177 176 187 191 184 203 209 206 197 202 218 208 222 202 210 211 202 191 186 189 184 189 178 171 171 164 162 160 160 158 155 151 147 149 150 142 134 131 126 114 102 91 88 83 82 74 72 70 69
224 132 138 101 93 91 87 94 121 112 212 357 309 247 243 245 279 8 251 248 245 244 144 144 124 122 152 202 193 197 198 201 204 201 202 211 209 202 203 202 191 189 193 197 194 190 186 190 189 192 193 197 205 202 213 216 215 199 211 219 221 214 229 222 212 194 199 188 186 176 175 175 174 174 166 164 165 156 147 151 151 149 143 136 135 129 120 114 110 104 96 91 91 89 81 75 71
341 108 119 127 102 107 102 118 120 140 93 138 207 239 204 79 7 265 258 252 249 237 157 193 199 219 213 210 210 204 204 205 203 198 200 196 203 202 201 201 199 198 193 191 185 191 187 185 192 199 206 204 216 220 220 221 221 215 208 219 222 194 219 245 225 208 203 195 186 184 189 183 181 182 173 169 163 156 150 143 147 141 135 131 128 123 118 113 106 100 95 95 91 88 86 84 84
116 120 121 118 113 126 158 160 145 135 134 172 244 240 217 124 211 265 221 237 110 205 234 209 217 232 230 224 218 214 212 209 202 198 189 189 192 202 200 197 199 199 188 190 188 191 183 183 193 201 205 207 207 214 225 233 228 220 215 217 213 191 205 212 257 219 202 201 179 178 201 186 176 181 184 173 160 156 146 141 140 135 123 116 111 104 95 100 103 105 113 113 108 100 89 86 86
120 122 118 115 137 128 146 166 141 185 163 193 263 273 278 205 195 241 201 139 149 206 226 219 221 231 233 228 221 215 218 218 204 194 196 189 195 197 200 198 200 199 198 198 192 188 181 186 189 198 203 193 205 217 225 234 239 228 223 218 211 204 180 202 231 303 230 204 194 182 195 216 210 179 183 180 157 160 151 140 129 112 100 96 92 91 91 84 88 89 84 89 99 99 95 88 89
127 178 175 146 162 200 174 193 150 221 144 180 52 279 259 217 232 239 209 149 170 210 222 221 222 226 226 229 222 213 215 211 203 201 206 204 199 197 204 200 197 196 201 202 194 188 186 189 198 199 204 205 201 216 222 223 226 234 225 222 217 183 161 199 216 222 304 231 193 195 196 199 211 223 186 164 136 152 139 129 124 122 116 110 109 101 89 86 96 96 94 95 94 102 104 100 95
150 186 293 162 196 228 179 128 123 216 113 143 204 266 244 217 227 231 137 173 182 240 245 240 238 231 225 217 219 222 216 207 208 209 206 205 202 200 203 196 192 191 189 191 195 191 187 186 186 194 199 203 205 214 220 220 221 226 227 216 218 201 183 218 213 207 203 244 227 204 204 198 175 211 184 151 147 123 112 111 108 103 105 116 113 116 114 115 121 117 120 114 110 114 114 109 102
199 133 265 252 201 185 138 193 150 215 113 169 180 259 274 29 143 105 118 152 221 246 253 252 246 236 225 221 223 226 222 214 215 209 205 200 199 199 198 192 188 188 183 189 190 190 190 181 179 189 184 196 197 212 217 225 227 221 224 221 220 213 208 216 220 202 188 196 241 208 173 195 167 136 105 134 130 127 127 126 124 126 129 127 125 128 126 127 132 136 138 126 129 117 110 106 101
164 178 212 203 239 114 139 143 175 220 139 195 186 257 255 266 111 90 95 179 213 240 250 255 251 243 230 226 227 231 233 218 216 216 203 197 197 192 192 191 187 190 191 186 186 186 191 184 180 189 182 197 195 203 208 217 224 229 223 220 223 198 213 213 211 197 180 177 189 242 183 164 168 151 149 149 136 136 132 131 129 129 135 139 135 138 137 143 149 133 124 127 127 121 114 106 100
201 239 176 190 214 169 166 166 156 12 119 175 211 256 339 179 107 131 143 201 210 236 252 253 253 251 243 233 232 235 237 224 210 210 203 191 196 194 191 194 190 194 193 189 186 186 190 184 179 192 191 194 195 191 200 208 213 224 223 217 225 219 213 219 205 183 183 182 171 182 187 173 177 159 151 151 140 138 130 123 129 136 141 133 130 135 141 145 145 131 129 134 134 125 117 110 104
204 206 248 193 213 203 237 104 192 161 241 212 208 243 249 275 264 180 176 196 198 241 259 263 264 261 254 246 237 233 232 227 218 206 200 194 194 194 192 193 193 192 196 195 191 187 188 183 180 190 192 193 186 178 191 208 210 215 249 220 225 223 208 204 191 188 190 183 184 177 181 169 182 159 153 152 150 142 135 134 137 140 134 131 138 146 141 138 126 132 125 131 133 124 123 119 114
209 189 222 218 224 247 280 197 138 199 186 252 237 233 251 255 267 271 253 202 224 252 260 263 264 261 259 251 244 241 239 233 226 209 193 191 192 191 189 187 190 189 193 194 191 188 187 184 179 181 185 184 178 171 184 202 191 200 205 213 197 182 132 161 190 199 189 178 184 179 169 166 164 159 146 145 141 139 139 142 143 146 142 140 142 144 143 140 134 131 131 128 124 115 121 117 115
348 202 223 269 235 190 221 119 137 205 217 230 237 253 258 251 254 252 252 259 257 258 260 262 259 258 254 248 245 242 237 238 228 202 179 180 185 184 184 183 185 187 188 189 189 186 186 179 178 175 180 178 182 181 185 193 199 193 192 197 203 190 171 150 148 166 172 181 165 146 166 162 165 161 148 143 136 140 142 147 149 152 149 149 147 146 148 148 147 139 137 134 121 108 105 114 119
24 330 285 259 268 274 109 117 108 165 272 255 256 261 264 264 263 267 272 271 265 262 256 255 253 248 244 242 241 240 237 240 186 165 164 174 176 178 178 180 185 186 188 187 187 186 186 180 178 178 175 174 180 188 193 196 197 194 197 199 200 192 166 137 164 164 165 159 158 180 183 166 159 154 145 139 135 138 145 147 136 141 151 153 154 155 153 149 148 135 129 128 132 124 122 131 127
269 262 261 242 211 262 88 126 147 144 252 276 273 273 269 270 267 266 264 260 260 257 256 253 251 250 247 243 243 239 239 211 143 163 172 169 173 175 176 183 186 186 193 189 189 185 184 182 182 178 171 172 188 197 196 200 200 198 192 193 187 161 153 173 181 175 172 149 161 178 167 202 167 157 157 147 137 141 140 143 145 151 150 148 141 145 144 141 141 139 136 125 139 132 139 148 149
230 258 242 267 247 258 117 94 122 147 205 267 278 275 275 274 273 265 251 246 247 252 251 258 267 267 260 252 249 248 239 223 187 196 177 177 173 176 180 189 193 198 189 191 187 183 183 183 183 178 173 173 188 197 198 200 198 196 199 194 179 134 99 73 128 142 160 164 161 152 162 179 160 157 161 153 145 145 145 145 151 151 152 142 136 141 145 149 154 149 152 145 144 141 135 157 165
238 221 231 235 57 351 233 106 146 181 231 293 307 296 276 270 261 255 251 245 248 250 257 265 264 261 256 253 251 250 246 239 228 208 183 176 173 179 186 191 193 193 192 189 187 187 182 185 183 183 177 176 184 197 199 200 178 108 66 96 97 118 155 120 88 93 114 136 148 132 135 131 153 152 147 155 152 153 152 151 151 155 153 151 149 148 157 158 159 159 162 160 151 144 161 169 193
219 241 244 257 262 264 272 357 290 216 222 318 276 274 263 239 250 253 252 248 246 253 258 257 251 246 251 263 263 247 251 249 243 233 190 171 176 187 190 188 185 190 193 190 187 187 183 187 183 182 177 177 185 191 193 153 117 127 114 92 95 95 94 136 141 161 156 147 120 163 150 86 136 161 148 152 155 156 156 155 154 152 151 156 152 149 160 171 171 168 166 162 168 158 156 165 185
219 213 234 261 290 301 304 329 342 292 248 154 277 314 291 97 217 255 261 180 224 233 227 234 238 238 235 241 245 244 237 238 246 245 219 181 185 184 185 185 187 192 195 192 190 188 184 182 179 180 174 176 188 195 191 162 165 155 157 160 167 174 166 178 190 179 171 175 183 148 95 113 118 160 153 152 162 157 157 158 158 149 145 153 160 159 155 152 169 174 178 167 162 175 157 150 164
253 233 233 245 263 325 313 304 328 282 296 112 271 315 282 250 271 228 217 239 262 271 207 241 255 251 239 232 234 226 227 229 221 228 233 206 186 180 184 185 191 193 196 189 186 188 186 178 179 180 182 180 192 195 182 159 167 172 176 180 174 178 172 189 184 166 168 168 146 150 141 125 130 157 161 163 165 167 160 160 159 153 157 161 160 152 154 167 172 178 169 174 163 155 160 159 171
237 39 318 36 242 237 282 306 278 274 316 278 190 220 272 282 250 230 212 236 267 266 264 255 256 259 253 246 236 220 209 215 214 228 224 226 196 189 190 187 189 194 187 184 185 189 186 182 179 180 182 188 183 174 173 178 174 180 183 183 179 186 188 180 180 159 145 130 141 138 133 138 143 144 144 162 166 171 171 162 150 157 163 167 165 170 167 169 169 171 173 166 161 170 172 171 171
32 40 19 80 111 54 222 264 287 303 329 296 164 192 238 263 332 205 206 225 232 251 258 258 258 257 263 256 171 123 139 133 190 198 214 207 204 196 194 185 187 186 184 184 185 186 183 183 183 183 188 194 190 184 177 182 182 180 182 183 183 192 189 165 147 126 134 143 144 130 127 120 130 107 112 142 161 164 169 164 165 161 161 157 167 162 169 173 175 164 168 175 177 175 182 170 162
141 146 84 85 82 73 197 284 282 298 300 268 162 181 255 284 275 186 185 213 204 240 258 255 248 244 231 184 131 129 125 148 171 206 179 179 187 190 188 179 179 185 182 179 178 179 181 183 185 187 194 202 192 181 179 182 185 182 193 192 185 174 109 112 126 142 143 144 149 155 132 145 151 122 97 120 151 157 161 160 171 173 170 163 168 168 164 172 171 170 174 176 170 167 175 158 157
134 157 115 119 115 156 178 239 271 287 246 262 165 180 203 286 280 188 171 189 194 231 239 243 231 230 207 101 117 140 147 148 141 144 142 127 125 162 171 179 179 178 179 179 179 183 181 184 189 195 201 207 206 186 181 183 183 193 200 195 189 177 159 143 144 144 144 149 158 162 156 159 150 138 128 122 136 154 161 164 171 175 173 165 172 166 171 171 170 171 173 162 158 158 145 134 130
164 157 167 179 213 175 220 214 164 232 257 74 139 170 187 234 272 151 184 195 220 200 239 239 253 266 216 132 136 133 138 136 138 152 155 157 148 159 169 181 181 179 176 182 181 182 185 186 191 204 209 210 207 191 182 185 187 194 200 200 196 173 172 162 165 165 167 172 165 162 157 149 153 146 149 132 148 161 160 163 169 169 170 167 175 172 170 172 162 157 149 142 133 111 107 114 116
236 185 189 211 227 162 227 181 218 205 250 123 56 133 254 233 241 244 182 193 229 223 238 253 266 275 262 137 149 144 148 150 156 164 162 173 181 178 181 185 181 183 185 186 187 185 186 191 198 205 211 211 207 186 185 185 187 193 191 198 184 166 163 172 169 172 169 168 167 162 165 168 159 160 174 167 173 176 170 169 173 174 166 173 169 164 167 163 152 147 142 139 131 127 126 128 134
200 199 186 192 231 230 247 224 230 269 180 128 148 147 245 274 290 235 246 233 225 229 233 244 255 263 273 213 157 162 172 176 180 178 181 182 186 184 185 185 187 188 189 188 189 186 183 190 205 210 213 210 206 188 189 186 189 189 195 198 177 151 167 168 169 172 175 172 170 171 174 170 170 182 176 180 172 169 181 180 175 170 165 161 162 146 131 133 141 141 139 128 123 121 113 112 109
203 204 195 207 218 225 240 218 234 231 269 116 196 136 241 228 8 324 238 255 238 238 243 227 235 263 265 257 173 175 181 192 187 194 192 190 189 183 181 187 190 191 190 188 186 186 184 192 204 207 212 209 207 190 188 190 189 191 192 180 152 155 163 163 175 178 177 180 170 172 174 168 175 179 176 170 152 173 172 168 171 161 148 142 131 115 113 119 129 120 127 121 120 119 117 112 115
194 221 253 247 238 243 258 327 318 334 336 273 180 226 277 229 54 159 39 335 258 241 228 199 228 244 251 256 248 220 197 202 194 210 215 209 188 182 182 189 191 189 190 187 188 185 188 195 204 208 210 209 210 189 188 187 189 187 186 174 182 160 149 160 179 185 189 202 173 171 167 162 160 154 146 147 153 168 164 152 155 142 125 122 117 118 135 137 138 136 130 129 116 115 123 120 119
169 152 213 211 25 245 288 160 117 66 287 255 230 265 251 268 266 237 190 194 212 207 210 222 235 243 248 246 241 247 195 179 180 191 196 194 182 191 193 189 185 186 187 189 188 187 191 192 202 208 210 210 211 194 192 188 188 185 182 173 183 183 180 183 190 186 185 184 188 184 180 170 148 130 126 133 147 160 151 147 138 130 131 132 132 141 149 148 146 139 138 131 131 130 124 123 125
113 210 202 71 38 6 221 253 196 222 241 265 211 245 274 277 293 154 195 213 233 217 220 222 226 229 241 243 239 226 181 183 181 185 187 185 188 189 187 189 188 185 188 187 191 187 190 194 196 208 209 209 212 198 193 191 187 185 177 170 185 193 188 187 176 167 172 143 161 161 148 155 168 142 138 141 146 146 140 143 141 143 143 147 150 151 150 149 146 136 134 134 132 130 119 109 113
297 292 83 174 201 218 210 229 244 243 242 265 256 262 264 246 247 144 194 207 218 226 228 222 227 233 240 242 240 199 161 173 168 177 176 186 185 188 186 187 187 189 187 189 190 187 190 193 197 206 211 211 212 204 193 189 187 180 167 174 170 172 182 186 175 157 157 157 176 178 184 178 149 127 136 146 141 143 144 151 148 149 151 151 150 149 148 150 149 137 136 128 130 129 124 121 118
324 274 233 299 298 243 201 202 267 245 255 246 270 272 267 229 241 238 242 217 211 221 215 216 223 233 238 239 223 179 179 182 184 181 185 178 175 181 185 184 185 186 187 189 188 191 194 194 197 202 209 212 209 205 191 189 186 178 171 160 170 171 175 173 151 151 161 169 178 183 187 183 170 153 151 147 152 154 158 158 159 151 153 153 150 147 153 149 142 138 136 132 137 132 129 129 128
182 222 224 175 212 32 337 269 219 227 250 254 283 283 267 264 240 247 230 235 220 218 214 210 220 232 238 233 194 182 182 174 170 174 162 156 172 179 181 183 184 183 185 185 188 194 194 195 199 200 204 209 212 211 193 189 179 183 176 180 174 172 174 163 150 162 156 173 182 184 187 178 145 158 153 155 160 165 164 163 154 155 156 157 152 149 149 147 141 137 134 136 138 140 137 134 133
186 191 207 200 182 199 213 244 192 217 234 247 268 265 275 281 102 156 230 217 189 191 195 202 220 234 210 191 213 182 169 166 153 148 140 159 166 159 167 179 185 184 185 189 191 193 196 199 199 198 201 207 209 205 190 184 179 178 176 175 180 184 181 180 177 176 184 183 183 185 179 156 171 161 160 161 163 165 167 162 155 154 157 154 150 147 149 151 146 141 137 142 145 146 141 138 142